Date String (YYYY-MM-DD hh:mm:ss) UTC,Instrument flags,absolute air pressure of the measurement (hPa),sample flow rate (lpm),inlet stack bypass flow (lpm),air temperature of the measurement (°C),ambient temperature measured by the external sensor (°C),aerosol sample conditioner tube jacket temperature (°C),OPC LED temperature (°C),internal box temperature (°C),relative humidity of the measurement (%),span deviation,mass concentration of particles derived from Lorenz-Mie calculation of OPC scattering (μg/m³),mass concentration of particles derived from Lorenz-Mie calculation of OPC scattering (μg/m³),mass concentration of particles derived from Lorenz-Mie calculation of OPC scattering (μg/m³)
DateTimeUTC,F1_M11,P_M11,Q1_M11,Q2_M11,T1_M11,T2_M11,T3_M11,T4_M11,T5_M11,U1_M11,ZSPAN_M11,X0_M11,X2_M11,X1_M11
2023-11-16 08:00:00,SystemResetWarning,0825.4,4.99,000.00,026.7,025.6,000.0,035.0,028.0,7.9,0000.0,0012.82,0005.21,0004.24
2023-11-16 08:01:00,SystemResetWarning,0825.4,4.99,000.00,026.7,025.6,000.0,035.0,028.1,7.9,0000.0,0013.25,0005.23,0004.21
2023-11-16 08:02:00,SystemResetWarning,0825.3,5.00,000.00,026.7,025.6,000.0,035.0,028.1,7.8,0000.0,0012.06,0005.20,0004.17
2023-11-16 08:03:00,SystemResetWarning,0825.2,5.00,000.00,026.7,025.6,000.0,035.0,028.1,7.8,0000.0,0012.16,0005.22,0004.15
2023-11-16 08:04:00,SystemResetWarning,0825.1,5.01,000.00,026.7,025.6,000.0,035.0,028.1,7.8,0000.0,0012.39,0005.18,0004.11
2023-11-16 08:05:00,SystemResetWarning,0825.1,5.00,000.00,026.7,025.6,000.0,035.0,028.1,7.8,0000.0,0012.43,0005.12,0004.03
2023-11-16 08:06:00,SystemResetWarning,0825.0,5.00,000.00,026.7,025.6,000.0,035.0,028.1,7.8,0000.0,0011.83,0005.02,0003.96
2023-11-16 08:07:00,SystemResetWarning,0825.1,4.99,000.00,026.7,025.7,000.0,035.0,028.1,7.8,0000.0,0011.63,0004.97,0003.93
2023-11-16 08:08:00,SystemResetWarning,0825.1,4.99,000.00,026.7,025.7,000.0,035.0,028.1,7.8,0000.0,0011.81,0004.90,0003.89
2023-11-16 08:09:00,SystemResetWarning,0825.2,4.99,000.00,026.7,025.7,000.0,035.0,028.1,7.8,0000.0,0012.40,0004.89,0003.85
2023-11-16 08:10:00,SystemResetWarning,0825.2,5.00,000.00,026.7,025.6,000.0,035.0,028.1,7.9,0000.0,0013.26,0004.89,0003.80
2023-11-16 08:11:00,SystemResetWarning,0825.3,5.01,000.00,026.7,025.6,000.0,035.0,028.0,8.0,0000.0,0013.56,0004.81,0003.78
2023-11-16 08:12:00,SystemResetWarning,0825.2,5.01,000.00,026.7,025.6,000.0,035.0,028.1,7.9,0000.0,0013.26,0004.73,0003.78
2023-11-16 08:13:00,SystemResetWarning,0825.2,5.01,000.00,026.7,025.6,000.0,035.0,028.1,7.8,0000.0,0013.52,0004.74,0003.80
2023-11-16 08:14:00,SystemResetWarning,0825.3,5.00,000.00,026.7,025.6,000.0,035.0,028.1,7.8,0000.0,0013.67,0004.71,0003.79
2023-11-16 08:15:00,SystemResetWarning,0825.2,4.99,000.00,026.7,025.6,000.0,035.0,028.1,7.8,0000.0,0013.89,0004.67,0003.78
2023-11-16 08:16:00,SystemResetWarning,0825.2,4.99,000.00,026.7,025.6,000.0,035.0,028.1,7.8,0000.0,0013.69,0004.67,0003.79
2023-11-16 08:17:00,SystemResetWarning,0825.1,4.99,000.00,026.7,025.6,000.0,035.0,028.1,7.8,0000.0,0014.86,0004.74,0003.83
2023-11-16 08:18:00,SystemResetWarning,0824.9,4.99,000.00,026.6,025.6,000.0,035.0,028.1,7.8,0000.0,0015.12,0004.78,0003.87
2023-11-16 08:19:00,SystemResetWarning,0824.9,5.00,000.00,026.6,025.6,000.0,035.0,028.1,7.8,0000.0,0015.32,0004.80,0003.88
2023-11-16 08:20:00,SystemResetWarning,0824.9,5.01,000.00,026.6,025.6,000.0,035.0,028.1,7.8,0000.0,0014.88,0004.82,0003.89
2023-11-16 08:21:00,SystemResetWarning,0824.9,5.00,000.00,026.6,025.6,000.0,035.0,028.0,7.8,0000.0,0014.95,0004.83,0003.92
2023-11-16 08:22:00,SystemResetWarning,0824.9,5.00,000.00,026.6,025.6,000.0,035.0,028.0,8.0,0000.0,0014.62,0004.86,0003.94
2023-11-16 08:23:00,SystemResetWarning,0824.9,5.00,000.00,026.6,025.6,000.0,035.0,028.0,8.0,0000.0,0014.45,0004.91,0003.99
2023-11-16 08:24:00,SystemResetWarning,0824.9,4.99,000.00,026.6,025.6,000.0,035.0,028.0,7.4,0000.0,0014.57,0004.93,0004.02
2023-11-16 08:25:00,SystemResetWarning,0825.0,4.99,000.00,026.6,025.6,000.0,035.0,028.0,7.4,0000.0,0014.35,0004.96,0004.07
2023-11-16 08:26:00,SystemResetWarning,0825.1,5.00,000.00,026.6,025.6,000.0,035.0,028.0,7.7,0000.0,0014.52,0005.03,0004.12
2023-11-16 08:27:00,SystemResetWarning,0825.1,5.00,000.00,026.6,025.6,000.0,035.0,028.0,7.7,0000.0,0014.97,0005.04,0004.16
2023-11-16 08:28:00,SystemResetWarning,0825.1,5.01,000.00,026.6,025.6,000.0,035.0,028.1,7.8,0000.0,0013.78,0005.01,0004.16
2023-11-16 08:29:00,SystemResetWarning,0825.2,5.00,000.00,026.6,025.6,000.0,035.0,028.0,8.0,0000.0,0013.24,0005.02,0004.19
2023-11-16 08:30:00,SystemResetWarning,0825.1,5.00,000.00,026.6,025.6,000.0,035.0,028.0,8.2,0000.0,0012.64,0005.01,0004.19
2023-11-16 08:31:00,SystemResetWarning,0825.1,5.01,000.00,026.6,025.6,000.0,035.0,028.0,8.0,0000.0,0012.39,0004.94,0004.18
2023-11-16 08:32:00,SystemResetWarning,0825.0,5.00,000.00,026.6,025.5,000.0,035.0,028.0,8.0,0000.0,0011.91,0004.92,0004.17
2023-11-16 08:33:00,SystemResetWarning,0824.9,5.00,000.00,026.5,025.5,000.0,035.0,028.0,8.1,0000.0,0011.83,0004.90,0004.14
2023-11-16 08:34:00,SystemResetWarning,0824.9,4.99,000.00,026.5,025.5,000.0,035.0,028.0,8.2,0000.0,0011.94,0004.90,0004.11
2023-11-16 08:35:00,SystemResetWarning,0824.9,4.99,000.00,026.5,025.5,000.0,035.0,027.9,8.0,0000.0,0011.55,0004.89,0004.09
2023-11-16 08:36:00,SystemResetWarning,0825.1,5.00,000.00,026.6,025.5,000.0,035.0,027.9,8.0,0000.0,0012.15,0004.87,0004.08
2023-11-16 08:37:00,SystemResetWarning,0825.1,5.00,000.00,026.5,025.5,000.0,035.0,027.9,8.1,0000.0,0011.31,0004.87,0004.07
2023-11-16 08:38:00,SystemResetWarning,0825.1,5.00,000.00,026.5,025.5,000.0,035.0,027.9,8.0,0000.0,0010.49,0004.89,0004.08
2023-11-16 08:39:00,SystemResetWarning,0825.1,5.00,000.00,026.5,025.5,000.0,035.0,028.0,8.1,0000.0,0011.07,0004.93,0004.11
2023-11-16 08:40:00,SystemResetWarning,0825.2,5.01,000.00,026.5,025.5,000.0,035.0,027.9,8.2,0000.0,0012.04,0004.94,0004.11
2023-11-16 08:41:00,SystemResetWarning,0825.2,5.00,000.00,026.5,025.5,000.0,035.0,028.0,8.1,0000.0,0012.41,0004.97,0004.14
2023-11-16 08:42:00,SystemResetWarning,0825.1,5.00,000.00,026.5,025.5,000.0,035.0,028.0,8.1,0000.0,0012.92,0005.04,0004.18
2023-11-16 08:43:00,SystemResetWarning,0825.1,5.00,000.00,026.5,025.5,000.0,034.9,028.0,8.2,0000.0,0013.17,0005.04,0004.20
2023-11-16 08:44:00,SystemResetWarning,0825.1,5.00,000.00,026.5,025.5,000.0,034.9,027.9,8.2,0000.0,0013.37,0005.06,0004.22
2023-11-16 08:45:00,SystemResetWarning,0825.1,5.01,000.00,026.5,025.5,000.0,034.9,027.9,8.3,0000.0,0014.19,0005.05,0004.24
2023-11-16 08:46:00,SystemResetWarning,0825.1,4.99,000.00,026.5,025.5,000.0,034.9,027.9,8.3,0000.0,0014.24,0005.04,0004.24
2023-11-16 08:47:00,SystemResetWarning,0825.0,4.99,000.00,026.5,025.5,000.0,034.9,027.9,8.1,0000.0,0013.90,0005.07,0004.24
2023-11-16 08:48:00,SystemResetWarning,0824.8,4.99,000.00,026.5,025.5,000.0,034.9,028.0,8.1,0000.0,0014.44,0005.07,0004.23
2023-11-16 08:49:00,SystemResetWarning,0824.9,5.01,000.00,026.5,025.5,000.0,034.9,028.0,7.9,0000.0,0014.49,0005.09,0004.22
2023-11-16 08:50:00,SystemResetWarning,0824.9,5.01,000.00,026.5,025.5,000.0,034.9,028.0,7.9,0000.0,0014.64,0005.14,0004.25
2023-11-16 08:51:00,SystemResetWarning,0825.0,5.00,000.00,026.5,025.5,000.0,034.9,028.0,8.1,0000.0,0014.27,0005.18,0004.26
2023-11-16 08:52:00,SystemResetWarning,0825.1,4.99,000.00,026.5,025.5,000.0,034.9,027.9,8.1,0000.0,0014.10,0005.22,0004.28
2023-11-16 08:53:00,SystemResetWarning,0825.0,5.00,000.00,026.5,025.5,000.0,034.9,027.9,8.1,0000.0,0013.70,0005.24,0004.30
2023-11-16 08:54:00,SystemResetWarning,0824.9,5.00,000.00,026.5,025.5,000.0,034.9,027.9,8.2,0000.0,0013.24,0005.29,0004.32
2023-11-16 08:55:00,SystemResetWarning,0825.0,5.00,000.00,026.5,025.5,000.0,034.9,027.9,8.2,0000.0,0013.51,0005.34,0004.38
2023-11-16 08:56:00,SystemResetWarning,0825.0,5.00,000.00,026.5,025.5,000.0,034.9,027.9,8.3,0000.0,0013.67,0005.39,0004.41
2023-11-16 08:57:00,SystemResetWarning,0824.9,5.00,000.00,026.5,025.5,000.0,034.9,027.9,8.4,0000.0,0013.29,0005.44,0004.43
2023-11-16 08:58:00,SystemResetWarning,0824.9,5.00,000.00,026.5,025.5,000.0,034.9,028.0,8.4,0000.0,0013.65,0005.41,0004.43
2023-11-16 08:59:00,SystemResetWarning,0825.0,5.00,000.00,026.5,025.5,000.0,034.9,027.9,8.4,0000.0,0013.91,0005.41,0004.42
